Total_Precipitation_Accumulation
0.58 0.62 0.61 0.68 0.60 0.70 0.91 1.13 1.07 1.27 1.35 1.26 1.11 1.02 1.01 0.96 0.83 0.96 1.06 1.01 0.96 1.08 1.60 1.97 1.99 1.92 1.73 1.48 1.32 1.24 1.15 1.00 0.84 0.62 0.54 0.55 0.58 0.63 0.55 0.43 0.36 0.29 0.23
0.98 0.98 0.87 0.89 0.82 0.89 1.08 1.27 1.24 1.48 1.37 1.32 1.09 1.09 1.04 0.97 0.92 1.08 1.18 1.21 1.15 1.19 1.43 1.82 2.08 2.09 1.93 1.67 1.44 1.27 1.22 1.17 1.04 0.77 0.61 0.59 0.63 0.68 0.64 0.55 0.45 0.35 0.27
1.20 1.19 1.06 1.00 1.12 1.22 1.36 1.33 1.39 1.57 1.40 1.30 1.17 1.13 1.01 0.91 0.88 1.05 1.19 1.31 1.17 1.13 1.30 1.62 1.94 1.96 1.86 1.75 1.57 1.44 1.34 1.26 1.21 0.98 0.73 0.62 0.61 0.64 0.65 0.62 0.53 0.39 0.27
1.40 1.51 1.28 1.14 1.39 1.50 1.57 1.65 1.59 1.58 1.54 1.42 1.29 1.09 1.02 0.93 0.83 0.90 0.96 1.10 1.17 0.95 1.11 1.46 1.58 1.52 1.60 1.73 1.77 1.85 1.76 1.54 1.41 1.18 0.90 0.74 0.69 0.68 0.66 0.64 0.56 0.41 0.25
1.60 1.78 1.60 1.57 1.70 1.82 1.75 1.64 1.86 1.89 1.73 1.60 1.35 1.23 0.95 0.85 0.82 0.80 0.82 0.88 1.01 0.98 0.91 1.02 1.25 1.24 1.40 1.72 1.93 2.13 2.17 2.01 1.75 1.48 1.21 1.02 0.94 0.83 0.71 0.66 0.60 0.42 0.27
1.89 2.11 1.88 1.87 2.01 2.07 2.01 1.99 2.06 2.03 1.90 1.87 1.52 1.25 1.00 0.80 0.78 0.74 0.69 0.74 0.76 0.68 0.67 0.73 0.85 0.78 0.87 1.15 1.49 1.87 2.22 2.42 2.24 1.85 1.66 1.53 1.40 1.16 0.86 0.68 0.57 0.48 0.36
1.99 2.23 1.95 2.17 2.27 2.22 2.22 2.17 2.26 2.13 1.96 2.07 1.84 1.36 0.92 0.68 0.57 0.52 0.52 0.56 0.53 0.60 0.70 0.84 0.94 1.01 0.94 0.86 0.98 1.26 1.84 2.40 2.52 2.26 2.15 2.07 1.94 1.61 1.11 0.82 0.57 0.45 0.41
1.98 2.10 2.31 2.34 2.38 2.33 2.28 2.20 2.18 1.98 1.78 1.97 1.92 1.65 1.13 0.79 0.58 0.50 0.57 0.56 0.58 0.63 0.63 0.72 0.88 1.08 1.05 1.07 1.10 0.92 1.37 2.06 2.44 2.54 2.66 2.66 2.47 1.94 1.39 1.03 0.70 0.51 0.45
2.09 2.21 2.35 2.40 2.29 2.20 2.15 2.18 2.10 1.94 1.75 1.77 1.88 1.81 1.41 1.02 0.73 0.53 0.56 0.62 0.77 0.79 0.65 0.62 0.63 0.65 0.71 0.93 1.27 1.15 1.07 1.27 1.62 2.28 2.81 3.05 2.74 1.97 1.44 1.19 0.98 0.70 0.52
1.88 1.98 2.04 2.18 2.22 2.19 2.06 1.95 1.91 1.90 1.80 1.63 1.73 1.75 1.64 1.41 1.16 0.75 0.53 0.53 0.68 0.75 0.70 0.62 0.59 0.59 0.64 0.88 1.16 1.12 0.94 0.78 0.78 1.27 1.96 2.32 2.24 1.73 1.38 1.28 1.29 1.07 0.73
1.76 1.74 1.82 2.00 2.05 1.96 1.89 1.95 2.01 1.91 1.74 1.56 1.59 1.62 1.70 1.65 1.45 1.15 0.76 0.64 0.63 0.59 0.66 0.64 0.56 0.55 0.65 0.85 1.02 0.88 0.84 0.67 0.58 0.62 0.91 1.28 1.48 1.41 1.28 1.35 1.52 1.49 1.21
1.71 1.64 1.64 1.74 1.81 1.78 1.74 1.75 1.80 1.76 1.65 1.64 1.62 1.58 1.56 1.50 1.47 1.43 1.10 0.89 0.76 0.54 0.53 0.55 0.57 0.56 0.62 0.72 0.70 0.70 0.70 0.58 0.53 0.50 0.52 0.66 0.86 0.98 1.06 1.25 1.50 1.60 1.55
1.66 1.61 1.55 1.49 1.48 1.49 1.56 1.68 1.68 1.68 1.70 1.72 1.65 1.63 1.52 1.41 1.45 1.45 1.27 1.02 0.88 0.62 0.60 0.54 0.54 0.56 0.54 0.65 0.69 0.71 0.62 0.49 0.47 0.46 0.47 0.49 0.58 0.68 0.81 0.99 1.24 1.46 1.57
1.61 1.49 1.36 1.31 1.29 1.30 1.37 1.51 1.64 1.63 1.69 1.69 1.61 1.56 1.42 1.34 1.37 1.34 1.31 1.28 1.09 0.94 0.92 0.79 0.59 0.52 0.55 0.57 0.57 0.58 0.52 0.49 0.42 0.37 0.35 0.38 0.44 0.54 0.64 0.82 0.98 1.09 1.22
1.33 1.29 1.25 1.23 1.18 1.20 1.23 1.25 1.37 1.36 1.40 1.44 1.50 1.42 1.26 1.23 1.26 1.27 1.34 1.39 1.30 1.15 1.14 1.04 0.72 0.54 0.53 0.56 0.61 0.49 0.44 0.41 0.40 0.37 0.30 0.31 0.33 0.39 0.48 0.59 0.73 0.85 0.92
1.21 1.15 1.15 1.15 1.09 1.05 1.06 1.08 1.12 1.18 1.13 1.15 1.30 1.30 1.24 1.21 1.24 1.23 1.27 1.36 1.43 1.40 1.27 1.11 0.92 0.68 0.66 0.59 0.61 0.55 0.48 0.41 0.36 0.32 0.26 0.24 0.27 0.32 0.39 0.46 0.55 0.65 0.72
1.14 1.15 1.11 1.07 0.97 0.90 0.87 0.88 0.90 0.99 0.99 0.97 1.03 1.03 1.05 1.11 1.18 1.19 1.20 1.22 1.39 1.55 1.44 1.37 1.23 1.07 0.93 0.80 0.65 0.59 0.50 0.42 0.37 0.32 0.25 0.22 0.24 0.27 0.32 0.40 0.47 0.55 0.62
0.89 0.90 0.91 0.96 0.99 0.96 0.91 0.88 0.85 0.83 0.86 0.87 0.93 1.00 1.02 1.10 1.15 1.09 1.15 1.21 1.37 1.55 1.61 1.71 1.75 1.49 1.17 0.95 0.85 0.71 0.48 0.37 0.37 0.33 0.27 0.24 0.22 0.23 0.26 0.32 0.40 0.52 0.61
0.79 0.79 0.79 0.82 0.83 0.92 1.01 1.01 0.98 0.97 0.98 0.89 0.93 1.01 1.00 1.00 1.00 0.99 1.07 1.17 1.30 1.43 1.55 1.60 1.71 1.52 1.31 1.05 1.02 0.83 0.64 0.56 0.39 0.34 0.28 0.25 0.25 0.26 0.26 0.30 0.37 0.46 0.56
0.80 0.79 0.74 0.74 0.77 0.77 0.84 0.96 1.00 0.98 0.93 0.87 0.86 0.86 0.82 0.82 0.85 0.86 0.89 1.02 1.13 1.22 1.31 1.34 1.43 1.44 1.43 1.37 1.31 1.11 0.96 0.81 0.64 0.46 0.42 0.29 0.27 0.26 0.27 0.28 0.33 0.42 0.53
0.74 0.78 0.70 0.67 0.71 0.76 0.74 0.75 0.84 0.86 0.83 0.79 0.79 0.72 0.61 0.63 0.68 0.67 0.69 0.84 0.94 1.02 1.12 1.19 1.30 1.40 1.46 1.49 1.39 1.31 1.17 1.07 0.89 0.80 0.83 0.65 0.53 0.42 0.36 0.34 0.35 0.38 0.45
0.70 0.70 0.63 0.60 0.61 0.57 0.60 0.56 0.57 0.63 0.64 0.63 0.65 0.65 0.57 0.51 0.49 0.52 0.52 0.58 0.66 0.75 0.91 1.09 1.24 1.40 1.42 1.35 1.42 1.39 1.34 1.25 1.18 1.09 1.08 1.14 1.07 0.94 0.74 0.54 0.50 0.43 0.39
0.67 0.65 0.59 0.55 0.52 0.51 0.43 0.38 0.38 0.47 0.52 0.50 0.51 0.54 0.48 0.44 0.41 0.37 0.43 0.51 0.52 0.54 0.59 0.82 1.03 1.09 1.06 0.98 1.16 1.34 1.30 1.26 1.31 1.24 1.22 1.34 1.33 1.21 0.95 0.78 0.66 0.51 0.44
0.64 0.64 0.59 0.55 0.55 0.53 0.43 0.35 0.31 0.31 0.40 0.45 0.44 0.44 0.44 0.46 0.41 0.38 0.38 0.44 0.43 0.41 0.41 0.45 0.52 0.59 0.66 0.72 0.87 1.13 1.32 1.28 1.32 1.31 1.28 1.48 1.47 1.39 1.17 0.94 0.76 0.56 0.48
0.59 0.58 0.60 0.60 0.59 0.54 0.41 0.33 0.32 0.35 0.41 0.41 0.40 0.40 0.39 0.41 0.43 0.39 0.36 0.39 0.39 0.40 0.37 0.36 0.36 0.42 0.49 0.53 0.60 0.74 0.94 1.22 1.51 1.56 1.35 1.45 1.51 1.52 1.57 1.29 0.97 0.76 0.59
0.62 0.57 0.58 0.61 0.59 0.59 0.44 0.28 0.26 0.35 0.45 0.47 0.51 0.48 0.39 0.35 0.35 0.29 0.29 0.33 0.33 0.33 0.31 0.33 0.34 0.35 0.38 0.43 0.43 0.50 0.58 0.80 1.10 1.33 1.29 1.34 1.54 1.76 1.94 1.68 1.24 0.90 0.74